Regional Weather Roundup
Issued by NWS

Home | Current Version | Previous Version | Text Only | Print | Product List | Glossary Off
Versions: 1 2 3 4 5 6 7 8 9 10 11 12 13 14 15 16 17 18 19 20 21 22 23 24 25 26 27 28 29 30 31 32 33 34 35 36 37 38 39 40 41 42 43 44 45 46 47 48 49 50

000
ASUS43 KDMX 220107
RWRIA

WEATHER ROUNDUP FOR IOWA
NATIONAL WEATHER SERVICE DES MOINES IA
700 PM CST SUN DEC 21 2014

NOTE: "FAIR" INDICATES FEW OR NO CLOUDS BELOW 12,000 FEET WITH NO
SIGNIFICANT WEATHER AND/OR OBSTRUCTIONS TO VISIBILITY.

* - THESE STATIONS ARE NOT NWS STATIONS...THUS NOT UNDER NWS
QUALITY CONTROL.  THEY ALSO DO NOT REPORT WEATHER SUCH
AS PRECIPITATION OR FOG.

IAZ001>003-012>014-020>022-031>034-043>046-220200-
   NORTHWEST IOWA

CITY           SKY/WX    TMP DP  RH WIND       PRES   REMARKS
CARROLL *      CLOUDY    39  39 100 S16G24    29.72S WCI  30
CHEROKEE *     CLOUDY    39  39 100 S12       29.68R FOG     WCI  32
DENISON *      CLOUDY    39  39 100 S15G26    29.68S FOG     WCI  31
LE MARS *      CLOUDY    39  39 100 S14       29.64F FOG     WCI  31
ORANGE CITY *  CLOUDY    39  37  93 S14G20    29.63F FOG     WCI  31
SHELDON *      CLOUDY    37  37 100 S23       29.62F FOG     WCI  26
SIOUX CITY     CLOUDY    41  38  89 S15       29.66S FOG
SPENCER        CLOUDY    38  36  92 S20       29.67F FOG     WCI  28
STORM LAKE *   CLOUDY    37  37 100 S17       29.69S FOG     WCI  28
$$

IAZ055>058-069>071-079>083-090>094-220200-
   SOUTHWEST IOWA

CITY           SKY/WX    TMP DP  RH WIND       PRES   REMARKS
ATLANTIC *     CLOUDY    41  41 100 S15G24    29.73S FOG
AUDUBON *      CLOUDY    39  36  87 S12       29.73F HAZE    WCI  32
CLARINDA *     CLOUDY    43  41  93 S9G15     29.77F
COUNCIL BLFS * CLOUDY    41  41 100 S14G20    29.70S FOG
CRESTON *      CLOUDY    41  41 100 S13G18    29.77S
HARLAN  *      CLOUDY    41  41 100 S18       29.74S FOG
LAMONI         CLOUDY    41  40  96 S10G20    29.79F
RED OAK *      CLOUDY    41  41 100 S14G21    29.74S
SHENANDOAH *   CLOUDY    43  41  93 S14       29.74F
$$

IAZ047>049-059>061-072>074-084-220200-
   CENTRAL IOWA

CITY           SKY/WX    TMP DP  RH WIND       PRES   REMARKS
AMES           CLOUDY    40  36  86 S12       29.79F WCI  33
ANKENY *       CLOUDY    41  39  93 S10       29.80S
CHARITON *     CLOUDY    43  39  87 S14       29.81S
DES MOINES     DRIZZLE   43  38  82 S14       29.80F
GRINNELL*      CLOUDY    39  37  93 SE15      29.83F WCI  31
KNOXVILLE *    CLOUDY    43  37  81 SE13      29.80F
MARSHALLTOWN   CLOUDY    39  37  92 SE14      29.81S WCI  31
PELLA *        CLOUDY    41  39  93 S13       29.84F
PERRY *        CLOUDY    41  39  93 S12       29.76F
$$

IAZ004>006-015-016-023>025-035-036-220200-
   NORTH CENTRAL IOWA

CITY           SKY/WX    TMP DP  RH WIND       PRES   REMARKS
ALGONA *       CLOUDY    37  28  70 S17       29.72F HAZE    WCI  28
CLARION *      CLOUDY    37  37 100 S16G22    29.75F WCI  28
ESTHERVILLE    CLOUDY    37  36  96 S21       29.67F FOG     WCI  26
FORT DODGE *   CLOUDY    39  36  87 S15       29.74F WCI  31
MASON CITY     CLOUDY    37  36  96 SE15      29.78F WCI  28
FOREST CITY *  CLOUDY    36  36 100 S10       29.75S WCI  28
IOWA FALLS *   CLOUDY    39  37  93 S12       29.79F FOG     WCI  32
$$

IAZ007>011-017>019-026>030-037>042-050>054-066-220200-
   NORTHEAST IOWA

CITY           SKY/WX    TMP DP  RH WIND       PRES   REMARKS
CEDAR RAPIDS   LGT RAIN  39  36  89 S7        29.88F WCI  34
CHARLES CITY * CLOUDY    37  37 100 SE15      29.81F FOG     WCI  28
CLINTON *      CLOUDY    36  30  80 S15       29.99F WCI  26
DECORAH *      CLOUDY    36  36 100 S12G17    29.84F WCI  27
DUBUQUE        CLOUDY    35  32  88 SE17G24   29.91F FOG     WCI  25
MONTICELLO *   CLOUDY    37  36  93 SE14      29.91S WCI  29
OELWEIN *      CLOUDY    37  37 100 SE16      29.86S FOG     WCI  28
WATERLOO       CLOUDY    38  38 100 S15       29.83F WCI  29
$$

IAZ064-065-067-068-078-220200-
   EAST CENTRAL IOWA

CITY           SKY/WX    TMP DP  RH WIND       PRES   REMARKS
DAVENPORT      CLOUDY    36  30  79 S17       29.96S WCI  26
IOWA CITY      CLOUDY    39  35  86 SE12      29.92S WCI  32
MT. PLEASANT * CLOUDY    39  34  81 SE15      29.93S WCI  31
MUSCATINE *    CLOUDY    39  34  81 SE14G22   29.94S WCI  31
QUAD CITIES    CLOUDY    36  31  82 SE14      29.97R WCI  27
$$

IAZ062-063-075>077-085>089-095>099-220200-
   SOUTHEAST IOWA

CITY           SKY/WX    TMP DP  RH WIND       PRES   REMARKS
BURLINGTON     CLOUDY    39  34  82 SE14      29.94S WCI  31
FAIRFIELD *    CLOUDY    41  37  87 SE12      29.89S
FORT MADISON * CLOUDY    41  37  87 SE13G18   29.94F
KEOKUK *       CLOUDY    41  36  81 SE10G16   29.92F
OSKALOOSA *    LGT RAIN  39  37  93 SE9       29.87S WCI  33
CENTERVILLE *  LGT RAIN  41  41 100 SE12      29.86F
OTTUMWA        CLOUDY    41  38  89 SE8       29.87F
WASHINGTON *   CLOUDY    39  39 100 SE16      29.90F WCI  30
$$

ABBREVIATIONS USED IN REMARKS
   TC - TEMPERATURES IN CELSIUS
  WCI - WIND CHILL INDEX
   HX - HEAT INDEX
  VSB - VISIBILITY
$$




USA.gov is the U.S. government's official web portal to all federal, state and local government web resources and services.